Terminal Aerodrome Forecast
Issued by NWS

Home | Current Version | Previous Version | Graphics & Text | Print | Product List | Glossary On
Versions: 1 2 3 4 5 6 7 8 9 10 11 12 13 14 15 16 17 18 19 20
000
FTUS43 KFGF 230920 AAA
TAFBJI
TAF AMD
KBJI 230920Z 2309/2406 18017G25KT P6SM -TSRA OVC070CB
     FM231100 17011KT P6SM TSRA OVC035CB
     FM231300 17011KT P6SM SHRA OVC035
     FM231700 20009KT P6SM SHRA BKN040
     FM231900 21008KT P6SM VCSH BKN045
     FM240000 24007KT P6SM VCSH SCT200
     FM240400 23004KT P6SM SCT250=

USA.gov is the U.S. government's official web portal to all federal, state and local government web resources and services.